Simultaneous Nadir Overpasses (SNOs) Predictions

Prediction of SNOs between TERRA and METOP-C Satellite Orbit:

Table of predicted SNOs for the next 14.0 days since TLE Epoch: 10/17/2020
Index Date (TERRA) Time (TERRA) Lat,Lon (TERRA) SZA (TERRA ) Date (METOP-C) Time (METOP-C) Lat,Lon (METOP-C) SZA (METOP-C ) Distance(km) Time Diff (sec)
1 10/19/2020 06:34:30 81.28, 128.15 94.54 10/19/2020 06:34:26 81.27, 128.06 94.52 1.75 4
2 10/19/2020 07:23:57 -81.28, -64.29 85.47 10/19/2020 07:25:07 -81.28, -64.30 85.43 0.29 70
3 10/22/2020 01:19:19 -81.26, 26.67 84.51 10/22/2020 01:18:12 -81.26, 26.68 84.54 0.12 67
4 10/22/2020 02:08:44 81.27,-165.62 95.51 10/22/2020 02:08:50 81.27,-165.69 95.51 1.15 6
5 10/24/2020 20:53:32 -81.27, 93.27 83.50 10/24/2020 20:52:35 -81.27, 93.32 83.53 0.86 57
6 10/24/2020 21:42:58 81.28, -99.05 96.52 10/24/2020 21:43:14 81.27, -99.05 96.52 0.16 16
7 10/27/2020 16:27:47 -81.26, 159.46 82.59 10/27/2020 16:27:00 -81.27, 159.54 82.59 1.66 47
8 10/27/2020 17:17:12 81.28, -32.52 97.49 10/27/2020 17:17:38 81.28, -32.44 97.51 1.45 26
9 10/30/2020 12:02:01 -81.26,-134.02 81.65 10/30/2020 12:01:24 -81.27,-133.87 81.64 2.77 37



Historial Predications of SNOs between TERRA and METOP-C
